Deer Lodge (38S)
Deer Lodge, MT
Field Elevation: 4692
Lat: 49°23.27N  Long: 112°45.89W
CTAF/Unicom Freq: 120.0250
   
     For Weather-by-Phone, call 406-846-1177
Weather Advisories
10/30/2014 18:09 Z
Altimeter 30.28" Hg
Wind 050° @ 0 KT
Gusts --
Visibility 10 SM
Temperature 7° C (45° F)
Dewpoint 1° C (34° F)
Relative Humidity 64%
Density Altitude --
Condensation Altitude 7,700 feet
  Wind and Runways
Indicated Runway = 13
History
 
 
More Info
All DigiWx sites map
Weather Radar
NOAA Forecast
 
Airport IQ 5010
(S59) Libby
(6S5) Ravalli County
 
about DigiWx
 
FAA Disclaimer: The data displayed is for advisory purposes only and is not to be used for flight planning or operations. For official data, please call 406-846-1177 to hear the current automated AWOS voice message.
  METAR 38S 301809Z AUTO 05000KT 10SM 07/01 A3028